TimePDT,TemperatureF,Dew PointF,Humidity,Sea Level PressureIn,VisibilityMPH,Wind Direction,Wind SpeedMPH,Gust SpeedMPH,PrecipitationIn,Events,Conditions,WindDirDegrees,DateUTC
12:15 AM,37.4,28.4,70,30.27,10.0,WNW,3.5,-,N/A,,Clear,300,2012-10-19 07:15:00
12:35 AM,39.2,28.4,65,30.27,10.0,Calm,Calm,-,N/A,,Clear,0,2012-10-19 07:35:00
12:55 AM,35.6,28.4,75,30.27,10.0,Calm,Calm,-,N/A,,Clear,0,2012-10-19 07:55:00
1:15 AM,39.2,28.4,65,30.26,10.0,Calm,Calm,-,N/A,,Clear,0,2012-10-19 08:15:00
1:35 AM,37.4,28.4,70,30.27,10.0,North,4.6,-,N/A,,Clear,360,2012-10-19 08:35:00
1:55 AM,32.0,24.8,75,30.28,10.0,South,3.5,-,N/A,,Clear,180,2012-10-19 08:55:00
2:15 AM,33.8,26.6,75,30.28,10.0,Calm,Calm,-,N/A,,Clear,0,2012-10-19 09:15:00
2:35 AM,32.0,26.6,80,30.27,10.0,Calm,Calm,-,N/A,,Clear,0,2012-10-19 09:35:00
2:55 AM,37.4,28.4,70,30.26,10.0,Calm,Calm,-,N/A,,Clear,0,2012-10-19 09:55:00
3:15 AM,33.8,26.6,75,30.26,10.0,Calm,Calm,-,N/A,,Clear,0,2012-10-19 10:15:00
3:35 AM,33.8,26.6,75,30.27,10.0,Calm,Calm,-,N/A,,Clear,0,2012-10-19 10:35:00
3:55 AM,30.2,24.8,80,30.25,10.0,SW,3.5,-,N/A,,Clear,230,2012-10-19 10:55:00
4:15 AM,33.8,26.6,75,30.25,10.0,Calm,Calm,-,N/A,,Clear,0,2012-10-19 11:15:00
4:35 AM,32.0,24.8,75,30.25,10.0,ENE,3.5,-,N/A,,Clear,60,2012-10-19 11:35:00
4:55 AM,32.0,24.8,75,30.25,10.0,ESE,4.6,-,N/A,,Clear,120,2012-10-19 11:55:00
5:15 AM,28.4,24.8,86,30.25,10.0,South,4.6,-,N/A,,Clear,170,2012-10-19 12:15:00
5:35 AM,32.0,26.6,80,30.25,10.0,Calm,Calm,-,N/A,,Clear,0,2012-10-19 12:35:00
5:55 AM,30.2,24.8,80,30.25,10.0,Calm,Calm,-,N/A,,Clear,0,2012-10-19 12:55:00
6:15 AM,32.0,24.8,75,30.25,10.0,ESE,3.5,-,N/A,,Clear,120,2012-10-19 13:15:00
6:35 AM,28.4,24.8,86,30.26,10.0,Calm,Calm,-,N/A,,Clear,0,2012-10-19 13:35:00
6:45 AM,28.4,21.2,74,30.25,10.0,Calm,Calm,-,N/A,,Clear,0,2012-10-19 13:45:00
7:45 AM,32.0,26.6,80,30.23,10.0,Calm,Calm,-,N/A,,Partly Cloudy,0,2012-10-19 14:45:00
8:55 AM,41.0,26.6,57,30.27,10.0,Calm,Calm,-,N/A,,Scattered Clouds,0,2012-10-19 15:55:00
9:55 AM,48.2,26.6,43,30.26,10.0,Calm,Calm,-,N/A,,Scattered Clouds,0,2012-10-19 16:55:00
10:55 AM,59.0,26.6,29,30.24,10.0,Calm,Calm,-,N/A,,Scattered Clouds,0,2012-10-19 17:55:00
11:45 AM,66.2,24.8,21,30.22,-9999.0,Calm,Calm,-,N/A,,Scattered Clouds,0,2012-10-19 18:45:00
12:55 PM,71.6,23.0,16,30.18,10.0,Calm,Calm,-,N/A,,Scattered Clouds,0,2012-10-19 19:55:00
1:50 PM,71.6,23.0,16,30.16,10.0,WSW,11.5,23.0,N/A,,Scattered Clouds,240,2012-10-19 20:50:00
2:50 PM,71.6,23.0,16,30.14,10.0,WNW,15.0,19.6,N/A,,Scattered Clouds,290,2012-10-19 21:50:00
3:55 PM,69.8,24.8,18,30.14,10.0,WSW,13.8,18.4,N/A,,Scattered Clouds,250,2012-10-19 22:55:00
4:45 PM,66.2,28.4,24,30.14,10.0,West,12.7,-,N/A,,Scattered Clouds,270,2012-10-19 23:45:00
5:55 PM,62.6,32.0,32,30.13,10.0,WSW,9.2,-,N/A,,Clear,250,2012-10-20 00:55:00
6:15 PM,59.0,32.0,36,30.13,10.0,SSW,4.6,-,N/A,,Clear,210,2012-10-20 01:15:00
6:35 PM,57.2,30.2,36,30.13,10.0,Calm,Calm,-,N/A,,Clear,0,2012-10-20 01:35:00
6:55 PM,55.4,30.2,38,30.14,10.0,SSW,3.5,-,N/A,,Clear,200,2012-10-20 01:55:00
7:15 PM,55.4,28.4,36,30.14,10.0,SE,3.5,-,N/A,,Clear,130,2012-10-20 02:15:00
7:35 PM,48.2,28.4,46,30.13,10.0,SE,4.6,-,N/A,,Clear,130,2012-10-20 02:35:00
7:55 PM,48.2,28.4,46,30.12,10.0,ESE,3.5,-,N/A,,Clear,120,2012-10-20 02:55:00
8:15 PM,48.2,28.4,46,30.12,10.0,Calm,Calm,-,N/A,,Clear,0,2012-10-20 03:15:00
8:35 PM,46.4,28.4,50,30.12,10.0,Calm,Calm,-,N/A,,Clear,0,2012-10-20 03:35:00
8:55 PM,46.4,28.4,50,30.11,10.0,Calm,Calm,-,N/A,,Clear,0,2012-10-20 03:55:00
9:15 PM,42.8,26.6,53,30.11,10.0,Calm,Calm,-,N/A,,Clear,0,2012-10-20 04:15:00
9:35 PM,42.8,28.4,57,30.11,10.0,Calm,Calm,-,N/A,,Clear,0,2012-10-20 04:35:00
9:55 PM,44.6,28.4,53,30.11,10.0,Calm,Calm,-,N/A,,Clear,0,2012-10-20 04:55:00
10:15 PM,39.2,26.6,61,30.11,10.0,Calm,Calm,-,N/A,,Clear,0,2012-10-20 05:15:00
10:35 PM,37.4,26.6,65,30.11,10.0,Calm,Calm,-,N/A,,Clear,0,2012-10-20 05:35:00
10:55 PM,37.4,24.8,60,30.11,10.0,Calm,Calm,-,N/A,,Clear,0,2012-10-20 05:55:00
11:15 PM,35.6,24.8,65,30.10,10.0,Calm,Calm,-,N/A,,Clear,0,2012-10-20 06:15:00
11:35 PM,35.6,23.0,60,30.10,10.0,Calm,Calm,-,N/A,,Clear,0,2012-10-20 06:35:00
11:55 PM,39.2,26.6,61,30.09,10.0,NNW,3.5,-,N/A,,Clear,330,2012-10-20 06:55:00